User: anonymous   Login
Location: Unspecified
(0.0000°N, 0.0000°E)
Time: 21:16:07
(UTC+00:00)
Language:

DNEPR OBJECT AB - Orbit

View from above orbital plane
View from above orbital plane
View from above satellite
View from above satellite

Ground track
Ground track

The orbit data is extracted from the following two-line orbital elements,

1 39441U 13066AB  17141.65286661 +.00000228 +00000-0 +39575-4 0  9996
2 39441 097.6289 173.3132 0082958 030.9082 329.6973 14.74605309186911
Epoch (UTC): 21 May 2017 15:40:07
Eccentricity: 0.0082958
inclination: 97.6289°
perigee height: 588 km
apogee height: 704 km
right ascension of ascending node: 173.3132°
argument of perigee: 30.9082°
revolutions per day: 14.74605309
mean anomaly at epoch: 329.6973°
orbit number at epoch: 18691

The dashed part of the orbit path shows where the satellite is in the earth's shadow,  

DLR